TimeCDT,TemperatureF,Dew PointF,Humidity,Sea Level PressureIn,VisibilityMPH,Wind Direction,Wind SpeedMPH,Gust SpeedMPH,PrecipitationIn,Events,Conditions,WindDirDegrees,DateUTC
12:53 AM,45.0,42.1,90,29.97,10.0,Calm,Calm,-,N/A,,Overcast,0,2013-10-17 05:53:00
1:53 AM,48.0,39.0,71,29.96,10.0,SW,4.6,-,N/A,,Mostly Cloudy,230,2013-10-17 06:53:00
2:53 AM,46.0,37.9,73,29.95,10.0,WSW,3.5,-,N/A,,Partly Cloudy,240,2013-10-17 07:53:00
3:53 AM,46.0,37.9,73,29.93,10.0,Calm,Calm,-,N/A,,Clear,0,2013-10-17 08:53:00
4:53 AM,44.1,37.0,76,29.94,10.0,Calm,Calm,-,N/A,,Clear,0,2013-10-17 09:53:00
5:53 AM,42.1,37.0,82,29.93,10.0,SW,3.5,-,N/A,,Clear,230,2013-10-17 10:53:00
6:53 AM,39.0,35.1,86,29.94,10.0,Calm,Calm,-,N/A,,Clear,0,2013-10-17 11:53:00
7:53 AM,36.0,35.1,97,29.94,10.0,Calm,Calm,-,N/A,,Clear,0,2013-10-17 12:53:00
8:53 AM,43.0,37.9,82,29.95,10.0,Calm,Calm,-,N/A,,Clear,0,2013-10-17 13:53:00
9:53 AM,48.9,39.9,71,29.95,10.0,West,8.1,-,N/A,,Clear,260,2013-10-17 14:53:00
10:53 AM,55.0,41.0,59,29.95,10.0,West,6.9,-,N/A,,Clear,260,2013-10-17 15:53:00
11:53 AM,59.0,39.9,49,29.93,10.0,WSW,6.9,-,N/A,,Clear,240,2013-10-17 16:53:00
12:53 PM,63.0,39.0,41,29.91,10.0,WSW,10.4,-,N/A,,Clear,250,2013-10-17 17:53:00
1:53 PM,64.0,37.0,37,29.89,10.0,West,16.1,24.2,N/A,,Clear,270,2013-10-17 18:53:00
2:53 PM,64.0,35.1,34,29.89,10.0,WNW,12.7,20.7,N/A,,Clear,300,2013-10-17 19:53:00
3:53 PM,64.0,33.1,31,29.89,10.0,NW,10.4,19.6,N/A,,Clear,310,2013-10-17 20:53:00
4:53 PM,63.0,37.9,40,29.90,10.0,NW,11.5,-,N/A,,Clear,310,2013-10-17 21:53:00
5:53 PM,60.1,39.9,47,29.92,10.0,WNW,12.7,-,N/A,,Clear,300,2013-10-17 22:53:00
6:53 PM,54.0,41.0,62,29.95,10.0,NW,12.7,23.0,N/A,,Unknown,310,2013-10-17 23:53:00
7:53 PM,50.0,39.0,66,30.00,10.0,NW,11.5,-,N/A,,Clear,310,2013-10-18 00:53:00
8:53 PM,50.0,39.0,66,30.01,10.0,NW,15.0,25.3,N/A,,Mostly Cloudy,320,2013-10-18 01:53:00
9:53 PM,50.0,37.9,63,30.03,10.0,NNW,17.3,28.8,N/A,,Overcast,330,2013-10-18 02:53:00
10:53 PM,48.9,36.0,61,30.04,10.0,NNW,15.0,21.9,N/A,,Overcast,330,2013-10-18 03:53:00
11:53 PM,46.0,36.0,68,30.05,10.0,NNW,10.4,-,N/A,,Scattered Clouds,330,2013-10-18 04:53:00